Weather History for FAUP - August, 2013

Change the Weather History Date:

Wednesday, August 21, 2013

  Actual Average Record
Temperature  
Mean Temperature 55 °F -  
Max Temperature 71 °F 76 °F 89 °F (2005)
Min Temperature 39 °F 46 °F 28 °F (2003)
Degree Days  
Heating Degree Days 10    
Growing Degree Days 5 (Base 50)    
Moisture  
Dew Point 24 °F    
Average Humidity 30    
Maximum Humidity 62    
Minimum Humidity 8    
Precipitation  
Precipitation 0.00 in 0.01 in - ()
Sea Level Pressure  
Sea Level Pressure 30.05 in    
Wind  
Wind Speed 7 mph ()    
Max Wind Speed 15 mph    
Max Gust Speed 28 mph    
Visibility 6.2 miles    
Events      
Averages and records for this station are not official NWS values.
T = Trace of Precipitation, MM = Missing Value Source: Averaged Metar Reports

Daily Weather History Graph

Daily Weather History Graph

Search for Another Location

Airport or City:

Trip Planner

Search our weather history database for the weather conditions in past years. The results will help you decide how hot, cold, wet, or windy it might be!

Date:

Astronomy

Aug. 21, 2013 Rise Set
Actual Time 7:00 AM SAST 6:15 PM SAST
Civil Twilight 6:36 AM SAST 6:39 PM SAST
Nautical Twilight 6:09 AM SAST 7:07 PM SAST
Astronomical Twilight 5:41 AM SAST 7:34 PM SAST
Moon 6:53 PM SAST (8/21) 6:52 AM SAST (8/21)
Length of Visible Light 12h 02m
Length of Day
11h 14m
Full, 100% of the Moon is Illuminated
Aug 21
Full
Aug 28
Last Quarter
Sep 5
New
Sep 12
First Quarter
Sep 19
Full

Hourly Weather History & Observations

Time (SAST) Temp. Windchill Dew Point Humidity Pressure Visibility Wind Dir Wind Speed Gust Speed Precip Events Conditions
12:00 AM 57.2 °F - 23.0 °F 27% 30.01 in - North 8.1 mph - N/A   Unknown
1:00 AM 53.6 °F - 21.2 °F 28% 30.01 in - SW 6.9 mph - N/A   Clear
2:00 AM 53 °F - 23 °F 19%  in 25 mi West 6.9 mph - -   Clear
2:00 AM 51.8 °F - 23.0 °F 33% 30.01 in - West 5.8 mph - N/A   Clear
3:00 AM 50.0 °F - 21.2 °F 32% 29.98 in - West 3.5 mph - N/A   Clear
4:00 AM 44.6 °F 42.2 °F 21.2 °F 39% 29.98 in - West 4.6 mph - N/A   Clear
5:00 AM 44 °F - 18 °F 23%  in 25 mi Calm Calm - -   Clear
5:00 AM 42.8 °F - 19.4 °F 39% 29.98 in - SW 1.2 mph - N/A   Clear
6:00 AM 41.0 °F 36.4 °F 15.8 °F 36% 30.01 in - West 6.9 mph - N/A   Clear
7:00 AM 41.0 °F 37.1 °F 17.6 °F 39% 30.01 in - West 5.8 mph - N/A   Clear
7:43 AM 46.4 °F 45.2 °F 21.2 °F 37% 30.04 in - West 3.5 mph - N/A   Clear
8:00 AM 48 °F - 20 °F 21%  in 25 mi West 3.5 mph - -   Clear
8:00 AM 46.4 °F 45.2 °F 21.2 °F 37% 30.04 in - West 3.5 mph - N/A   Clear
8:11 AM 50.0 °F - 23.0 °F 35% 30.04 in - WSW 2.3 mph - N/A   Clear
8:43 AM 55.4 °F - 23.0 °F 29% 30.06 in - WSW 3.5 mph - N/A   Clear
9:00 AM 55.4 °F - 24.8 °F 31% 30.06 in - WSW 3.5 mph - N/A   Clear
10:00 AM 60.8 °F - 26.6 °F 27% 30.06 in - SW 5.8 mph - N/A   Clear
11:00 AM 66 °F - 20 °F 8%  in 25 mi SW 12.7 mph - -   Clear
11:00 AM 64.4 °F - 21.2 °F 19% 30.09 in - SW 12.7 mph - N/A   Clear
12:00 PM 66.2 °F - 17.6 °F 15% 30.06 in - SW 12.7 mph - N/A   Clear
1:00 PM 66.2 °F - 14.0 °F 13% 30.06 in - WSW 11.5 mph - N/A   Clear
2:00 PM 68.0 °F - 14.0 °F 12% 30.04 in - SW 12.7 mph - N/A   Clear
3:00 PM 69.8 °F - 12.2 °F 11% 30.04 in - WSW 10.4 mph - N/A   Clear
4:00 PM 69.8 °F - 19.4 °F 15% 30.04 in 6.2 mi SW 13.8 mph 27.6 mph N/A   Partly Cloudy
5:00 PM 67 °F - 30 °F 15%  in 25 mi SW 15.0 mph - -   Scattered Clouds
5:00 PM 66.2 °F - 30.2 °F 26% 30.04 in 6.2 mi SW 13.8 mph - N/A   Scattered Clouds
6:00 PM 62.6 °F - 32.0 °F 32% 30.06 in 6.2 mi WSW 13.8 mph - N/A   Scattered Clouds
7:00 PM 60.8 °F - 33.8 °F 36% 30.06 in 6.2 mi SW 12.7 mph - N/A   Partly Cloudy
8:00 PM 58 °F - 33 °F 27%  in 25 mi SW 9.2 mph - -   Scattered Clouds
8:00 PM 57.2 °F - 32.0 °F 38% 30.09 in 6.2 mi SW 9.2 mph - N/A   Partly Cloudy
9:00 PM 55.4 °F - 33.8 °F 44% 30.12 in - SW 10.4 mph - N/A   Unknown
10:00 PM 51.8 °F - 37.4 °F 58% 30.15 in - SSW 11.5 mph - N/A   Unknown
11:00 PM 51 °F - 38 °F 50%  in - SSW 9.2 mph - -  
11:00 PM 50.0 °F - 37.4 °F 62% 30.15 in - SSW 9.2 mph - N/A   Unknown